RYR9442 LIRF-LOWW

Flight info

Callsign RYR9442
Flight time N/A
Altitude 36000
Route SOVAN DCT AMTEL DCT GAVRA/N0453F370 DCT LAPNA LAPNA2W
Aircraft A320/M-SDE3FGHIRWY/LB1

Departure

Time N/A
Airport Rome–Fiumicino Leonardo da Vinci International Airport (LIRF)

Arrival

Time 2026-05-01 10:48
Airport Vienna International Airport (LOWW)
Time Latitude Longitude Altitude Speed Heading
2026-05-01 10:11 45.46697 14.02694 37417 ft 403 kts 43°
2026-05-01 10:11 45.48736 14.05471 37416 ft 404 kts 43°
2026-05-01 10:11 45.52798 14.11010 37414 ft 404 kts 43°
2026-05-01 10:12 45.56170 14.15612 37411 ft 403 kts 43°
2026-05-01 10:13 45.62915 14.24827 37406 ft 403 kts 43°
2026-05-01 10:13 45.66958 14.30377 37412 ft 403 kts 43°
2026-05-01 10:14 45.73023 14.38735 37410 ft 403 kts 43°
2026-05-01 10:14 45.76380 14.43356 37408 ft 402 kts 43°
2026-05-01 10:15 45.80396 14.48903 37404 ft 401 kts 43°
2026-05-01 10:15 45.84404 14.54442 37394 ft 400 kts 43°
2026-05-01 10:16 45.88401 14.59977 37383 ft 400 kts 43°
2026-05-01 10:17 45.94390 14.68309 37396 ft 400 kts 43°
2026-05-01 10:17 46.00386 14.76666 37386 ft 401 kts 43°
2026-05-01 10:18 46.06374 14.85049 37405 ft 398 kts 44°
2026-05-01 10:19 46.10291 14.90564 37407 ft 395 kts 43°
2026-05-01 10:19 46.14240 14.96108 37403 ft 396 kts 43°
2026-05-01 10:20 46.20161 15.04444 37405 ft 397 kts 44°
2026-05-01 10:20 46.24033 15.09936 37405 ft 397 kts 44°
2026-05-01 10:21 46.29943 15.18299 37412 ft 396 kts 43°
2026-05-01 10:22 46.35843 15.26692 37418 ft 397 kts 44°
2026-05-01 10:23 46.41735 15.35099 37418 ft 396 kts 44°
2026-05-01 10:23 46.47617 15.43509 37420 ft 397 kts 44°
2026-05-01 10:24 46.56106 15.53596 37425 ft 397 kts 25°
2026-05-01 10:25 46.66280 15.59776 36950 ft 395 kts 24°
2026-05-01 10:26 46.68806 15.61324 36699 ft 393 kts 25°
2026-05-01 10:26 46.71320 15.62868 36448 ft 391 kts 25°
2026-05-01 10:26 46.76356 15.65961 35945 ft 392 kts 25°
2026-05-01 10:27 46.81352 15.69037 34730 ft 392 kts 26°
2026-05-01 10:27 46.86376 15.72140 33182 ft 392 kts 26°
2026-05-01 10:28 46.88890 15.73692 32348 ft 392 kts 27°
2026-05-01 10:28 46.93903 15.76779 30666 ft 391 kts 27°
2026-05-01 10:28 46.96411 15.78326 29735 ft 392 kts 27°
2026-05-01 10:29 47.01439 15.81444 27792 ft 394 kts 27°
2026-05-01 10:29 47.03967 15.83018 26889 ft 394 kts 27°
2026-05-01 10:30 47.08912 15.86084 25680 ft 380 kts 27°
2026-05-01 10:30 47.13727 15.89074 24396 ft 372 kts 27°
2026-05-01 10:31 47.18438 15.91998 23158 ft 363 kts 27°
2026-05-01 10:31 47.23050 15.94880 21941 ft 358 kts 27°
2026-05-01 10:32 47.27609 15.97746 20731 ft 355 kts 26°
2026-05-01 10:32 47.29879 15.99176 20137 ft 354 kts 26°
2026-05-01 10:32 47.34395 16.02025 19011 ft 351 kts 26°
2026-05-01 10:33 47.38898 16.04737 18100 ft 350 kts 22°
2026-05-01 10:33 47.43655 16.07091 17446 ft 364 kts 20°
2026-05-01 10:34 47.46066 16.08225 17108 ft 364 kts 20°
2026-05-01 10:34 47.48470 16.09360 16784 ft 362 kts 20°
2026-05-01 10:34 47.50860 16.10508 16428 ft 361 kts 21°
2026-05-01 10:35 47.55602 16.12846 15756 ft 358 kts 21°
2026-05-01 10:35 47.57953 16.14040 15434 ft 355 kts 24°
2026-05-01 10:35 47.60072 16.15839 15064 ft 351 kts 40°
2026-05-01 10:35 47.61678 16.18527 14663 ft 350 kts 57°
2026-05-01 10:36 47.62983 16.25447 13863 ft 353 kts 79°
2026-05-01 10:36 47.63317 16.29038 13462 ft 351 kts 79°
2026-05-01 10:36 47.63647 16.32619 13059 ft 350 kts 79°
2026-05-01 10:37 47.63974 16.36188 12656 ft 348 kts 79°
2026-05-01 10:37 47.64615 16.43269 11877 ft 341 kts 79°
2026-05-01 10:37 47.64922 16.46668 11475 ft 322 kts 79°
2026-05-01 10:38 47.65207 16.49817 11082 ft 303 kts 79°
2026-05-01 10:38 47.65482 16.52819 10700 ft 286 kts 79°
2026-05-01 10:38 47.65742 16.55661 10318 ft 273 kts 79°
2026-05-01 10:38 47.65996 16.58424 9919 ft 270 kts 79°
2026-05-01 10:39 47.66254 16.61196 9518 ft 272 kts 79°
2026-05-01 10:39 47.66533 16.63975 9129 ft 272 kts 75°
2026-05-01 10:39 47.67032 16.66672 8756 ft 272 kts 72°
2026-05-01 10:39 47.67545 16.69372 8343 ft 273 kts 72°
2026-05-01 10:40 47.68230 16.71982 7939 ft 271 kts 54°
2026-05-01 10:40 47.69598 16.73840 7559 ft 269 kts 27°
2026-05-01 10:40 47.71401 16.74489 7180 ft 270 kts 360°
2026-05-01 10:40 47.73242 16.73939 6877 ft 269 kts 346°
2026-05-01 10:41 47.75034 16.73192 6492 ft 270 kts 346°
2026-05-01 10:41 47.76840 16.72441 6212 ft 266 kts 346°
2026-05-01 10:41 47.80186 16.71045 5871 ft 231 kts 346°
2026-05-01 10:42 47.81686 16.70422 5540 ft 223 kts 346°
2026-05-01 10:42 47.83186 16.69804 4951 ft 225 kts 346°
2026-05-01 10:42 47.84689 16.69186 4548 ft 220 kts 346°
2026-05-01 10:42 47.86124 16.68597 4356 ft 208 kts 346°
2026-05-01 10:43 47.87504 16.68038 4248 ft 205 kts 346°
2026-05-01 10:43 47.88850 16.67494 4147 ft 195 kts 346°
2026-05-01 10:43 47.90124 16.66996 4062 ft 185 kts 346°
2026-05-01 10:43 47.91352 16.66496 4001 ft 183 kts 346°
2026-05-01 10:44 47.92577 16.65987 3840 ft 182 kts 346°
2026-05-01 10:44 47.93383 16.65650 3700 ft 181 kts 346°
2026-05-01 10:44 47.94860 16.65030 3421 ft 181 kts 345°
2026-05-01 10:44 47.96067 16.64523 3181 ft 180 kts 345°
2026-05-01 10:45 47.97271 16.64017 2956 ft 179 kts 346°
2026-05-01 10:45 47.98434 16.63527 2743 ft 169 kts 346°
2026-05-01 10:45 47.99528 16.63067 2504 ft 153 kts 345°
2026-05-01 10:45 48.00492 16.62663 2277 ft 140 kts 344°
2026-05-01 10:46 48.01412 16.62274 2091 ft 137 kts 343°
2026-05-01 10:46 48.02316 16.61896 1922 ft 135 kts 343°
2026-05-01 10:46 48.03217 16.61530 1719 ft 134 kts 343°
2026-05-01 10:46 48.04106 16.61147 1539 ft 133 kts 342°
2026-05-01 10:47 48.05009 16.60761 1359 ft 133 kts 343°
2026-05-01 10:47 48.05886 16.60392 1200 ft 133 kts 343°
2026-05-01 10:47 48.06775 16.60015 1020 ft 133 kts 343°
2026-05-01 10:47 48.07665 16.59639 843 ft 133 kts 343°
2026-05-01 10:48 48.08563 16.59260 698 ft 135 kts 343°
2026-05-01 10:48 48.09449 16.58885 622 ft 123 kts 343°
2026-05-01 10:48 48.10143 16.58595 621 ft 78 kts 344°
2026-05-01 10:48 48.10509 16.58438 617 ft 40 kts 344°
2026-05-01 10:49 48.10730 16.58271 612 ft 35 kts 316°
2026-05-01 10:49 48.10861 16.58070 609 ft 20 kts 315°
2026-05-01 10:49 48.10922 16.57991 613 ft 3 kts 319°
2026-05-01 10:49 48.10945 16.57957 609 ft 6 kts 315°
2026-05-01 10:50 48.10980 16.57900 620 ft 11 kts 310°
2026-05-01 10:50 48.11049 16.57796 616 ft 17 kts 331°
2026-05-01 10:50 48.11148 16.57730 613 ft 14 kts 317°
2026-05-01 10:50 48.11199 16.57587 609 ft 17 kts 297°
2026-05-01 10:51 48.11255 16.57414 622 ft 20 kts 296°
2026-05-01 10:51 48.11321 16.57215 620 ft 23 kts 296°
2026-05-01 10:51 48.11392 16.56992 617 ft 21 kts 294°
2026-05-01 10:51 48.11462 16.56784 616 ft 24 kts 295°
2026-05-01 10:52 48.11536 16.56549 619 ft 26 kts 297°
2026-05-01 10:52 48.11618 16.56301 620 ft 26 kts 296°
2026-05-01 10:52 48.11699 16.56052 609 ft 26 kts 296°
2026-05-01 10:52 48.11779 16.55804 614 ft 27 kts 294°
2026-05-01 10:53 48.11855 16.55575 619 ft 22 kts 296°
2026-05-01 10:53 48.11907 16.55446 617 ft 12 kts 346°
2026-05-01 10:53 48.12000 16.55499 621 ft 17 kts 26°
2026-05-01 10:53 48.12082 16.55558 609 ft 1 kts 25°
2026-05-01 10:54 48.12103 16.55555 609 ft 6 kts 325°
2026-05-01 10:54 48.12119 16.55510 609 ft 0 kts 295°
2026-05-01 10:54 48.12119 16.55509 609 ft 0 kts 295°